Terminal Aerodrome Forecast
Issued by NWS

Home | Current Version | Previous Version | Text Only | Print | Product List | Glossary On
Versions: 1 2 3 4 5 6 7 8 9 10 11 12 13 14 15 16 17 18 19 20 21 22 23 24
000
FTUS45 KSLC 241120
TAFSGU
TAF
KSGU 241120Z 2412/2512 12010KT P6SM FEW100 SCT200
     FM241600 VRB05KT P6SM FEW100 SCT200
     FM242000 24012G18KT P6SM FEW100 SCT200
     FM250200 24009KT P6SM SCT200
     FM250500 VRB05KT P6SM SCT200
      AMD LTD TO CLD VIS AND WIND=

USA.gov is the U.S. government's official web portal to all federal, state and local government web resources and services.